Location: Brantley
(31.5822°N, 86.2569°W)
Time: 03:31:39
(UTC+00:00)

Vanguard 2 - Pass Details

Date: 19 February 2026
Orbit: 553 x 2896 km, 32.9° (Epoch: 7 March)

Event Time Altitude Azimuth Distance (km) Brightness Sun altitude
Rises 14:54:28 0° 281° (W) 2,837 10.0 28.6°
Reaches altitude 10° 14:56:48 10° 279° (W) 1,850 9.1 29.0°
Maximum altitude 15:00:46 69° 195° (SSW) 595 7.6 29.7°
Drops below altitude 10° 15:05:00 10° 113° (ESE) 1,979 11.1 30.4°
Sets 15:07:34 0° 110° (ESE) 3,060 11.6 30.8°
